This demonstration page uses our WeatherBlox Daily Observations layout. Learn more.

40.92945, -100.16068

Hourly Observations for March 18, 2017

Temp ( °F °C ) Dew Point ( °F °C ) Humidity (%) Winds ( mph kmh ) Pressure ( in mb ) Visibility ( mi km ) Precip ( " mm )
12:15 am 00:15 Clear 39 3.9 23 -5 53 53 E 6 9 30.39 1029 10 16.0934 0 0
12:35 am 00:35 Clear 41 4.9 22 -5.7 47 47 E 3 6 30.39 1029 10 16.0934 0 0
12:55 am 00:55 Clear 41 4.8 21 -6 46 46 ENE 3 6 30.39 1029 10 16.0934 0 0
1:15 am 01:15 Clear 38 3.3 21 -6 51 51 Calm 30.42 1030 10 16.0934 0 0
1:35 am 01:35 Clear 34 0.9 22 -5.6 62 62 Calm 30.42 1030 10 16.0934 0 0
1:55 am 01:55 Clear 35 1.7 22 -5.3 60 60 Calm 30.42 1030 10 16.0934 0 0
2:15 am 02:15 Clear 33 0.6 24 -4.6 68 68 Calm 30.42 1030 10 16.0934 0 0
2:35 am 02:35 Clear 33 0.3 24 -4.5 70 70 Calm 30.45 1031 10 16.0934 0 0
2:55 am 02:55 Clear 32 0 24 -4.6 71 71 NNE 3 6 30.48 1032 10 16.0934 0 0
3:15 am 03:15 Clear 33 0.5 25 -3.8 73 73 Calm 30.45 1031 10 16.0934 0 0
3:35 am 03:35 Clear 34 1.1 25 -3.7 71 71 Calm 30.42 1030 10 16.0934 0 0
3:55 am 03:55 Clear 33 0.8 25 -3.7 72 72 Calm 30.42 1030 10 16.0934 0 0
4:15 am 04:15 Clear 34 0.9 25 -4.1 70 70 Calm 30.42 1030 10 16.0934 0 0
4:35 am 04:35 Clear 33 0.8 24 -4.2 70 70 Calm 30.42 1030 10 16.0934 0 0
4:55 am 04:55 Clear 32 -0.2 24 -4.5 73 73 NE 3 6 30.45 1031 10 16.0934 0 0
5:15 am 05:15 Clear 30 -1 23 -4.9 75 75 Calm 30.45 1031 10 16.0934 0 0
5:35 am 05:35 Clear 31 -0.6 23 -4.8 74 74 Calm 30.45 1031 10 16.0934 0 0
5:55 am 05:55 Clear 31 -0.4 23 -4.8 72 72 Calm 30.45 1031 10 16.0934 0 0
6:15 am 06:15 Clear 29 -1.4 22 -5.3 75 75 Calm 30.45 1031 10 16.0934 0 0
6:35 am 06:35 Clear 29 -1.4 22 -5.3 75 75 Calm 30.45 1031 10 16.0934 0 0
6:55 am 06:55 Clear 30 -1.2 23 -5.2 75 75 Calm 30.45 1031 10 16.0934 0 0
7:15 am 07:15 Clear 29 -1.6 22 -5.4 76 76 Calm 30.45 1031 10 16.0934 0 0
7:35 am 07:35 Clear 28 -2.3 22 -5.6 78 78 Calm 30.45 1031 10 16.0934 0 0
7:55 am 07:55 Sunny 28 -2.1 22 -5.3 79 79 Calm 30.48 1032 10 16.0934 0 0
8:15 am 08:15 Sunny 29 -1.4 23 -5 77 77 S 3 6 30.48 1032 10 16.0934 0 0
8:35 am 08:35 Sunny 32 0 26 -3.3 79 79 Calm 30.48 1032 10 16.0934 0 0
8:55 am 08:55 Sunny 35 1.8 26 -3.2 70 70 SSE 3 6 30.45 1031 10 16.0934 0 0
9:15 am 09:15 Sunny 39 3.7 28 -2.4 65 65 SSE 9 15 30.45 1031 10 16.0934 0 0
9:35 am 09:35 Sunny 41 5.2 27 -2.6 57 57 SSE 9 15 30.42 1030 10 16.0934 0 0
9:55 am 09:55 Sunny 43 5.9 26 -3.1 53 53 SSE 10 17 30.42 1030 10 16.0934 0 0
10:15 am 10:15 Sunny 45 7 26 -3.3 48 48 SSE 10 17 30.39 1029 10 16.0934 0 0
10:35 am 10:35 Sunny 46 7.9 25 -4.1 43 43 SSE 12 19 30.39 1029 10 16.0934 0 0
10:55 am 10:55 Sunny 47 8.5 24 -4.3 40 40 SSE 13 20 30.39 1029 10 16.0934 0 0
11:15 am 11:15 Sunny 48 9.1 25 -4.1 39 39 S 15 24 30.36 1028 10 16.0934 0 0
11:35 am 11:35 Sunny 49 9.7 24 -4.3 37 37 S 14 22 30.33 1027 10 16.0934 0 0
11:55 am 11:55 Sunny 51 10.5 24 -4.5 35 35 SSE 12 19 30.33 1027 10 16.0934 0 0
12:15 pm 12:15 Sunny 53 11.5 24 -4.4 33 33 SSE 16 26 30.3 1026 10 16.0934 0 0
12:35 pm 12:35 Sunny 54 12 25 -4.1 32 32 SSE 18 30 30.3 1026 10 16.0934 0 0
12:55 pm 12:55 Sunny 54 12.4 24 -4.5 31 31 SSE 16 26 30.3 1026 10 16.0934 0 0
1:15 pm 13:15 Sunny 56 13.2 24 -4.5 29 29 S 17 28 30.24 1024 10 16.0934 0 0
1:35 pm 13:35 Sunny 57 13.9 24 -4.3 28 28 SSE 16 26 30.24 1024 10 16.0934 0 0
1:55 pm 13:55 Sunny 58 14.5 24 -4.5 27 27 SSE 17 28 30.24 1024 10 16.0934 0 0
2:15 pm 14:15 Sunny 59 15 25 -4 27 27 S 17 28 30.21 1023 10 16.0934 0 0
2:35 pm 14:35 Sunny 60 15.5 25 -3.8 26 26 S 13 20 30.18 1022 10 16.0934 0 0
2:55 pm 14:55 Sunny 61 15.9 25 -3.7 26 26 S 17 28 30.15 1021 10 16.0934 0 0
3:15 pm 15:15 Sunny 62 16.7 26 -3.2 26 26 SSW 21 33 30.15 1021 10 16.0934 0 0
3:35 pm 15:35 Sunny 63 17 27 -2.9 26 26 S 16 26 30.12 1020 10 16.0934 0 0
3:55 pm 15:55 Sunny 64 17.8 27 -2.6 25 25 S 22 35 30.12 1020 10 16.0934 0 0
4:15 pm 16:15 Sunny 65 18.4 28 -2.3 25 25 S 16 26 30.09 1019 10 16.0934 0 0
4:35 pm 16:35 Sunny 65 18.5 28 -2 25 25 S 17 28 30.09 1019 10 16.0934 0 0
4:55 pm 16:55 Sunny 66 18.7 29 -1.7 25 25 S 16 26 30.06 1018 10 16.0934 0 0
5:15 pm 17:15 Sunny 65 18.2 29 -1.7 26 26 S 17 28 30.06 1018 10 16.0934 0 0
5:35 pm 17:35 Sunny 66 18.9 30 -1 26 26 S 14 22 30.03 1017 10 16.0934 0 0
5:55 pm 17:55 Sunny 66 19 31 -0.5 27 27 S 17 28 30.03 1017 10 16.0934 0 0
6:15 pm 18:15 Sunny 66 19 32 -0.1 28 28 SSE 10 17 30.03 1017 10 16.0934 0 0
6:35 pm 18:35 Sunny 66 18.9 32 -0.1 28 28 SSE 15 24 30.03 1017 10 16.0934 0 0
6:55 pm 18:55 Sunny 64 17.8 32 -0.1 30 30 SSE 13 20 30.03 1017 10 16.0934 0 0
7:15 pm 19:15 Sunny 63 17.3 32 0 31 31 SE 8 13 30.06 1018 10 16.0934 0 0
7:35 pm 19:35 Sunny 63 17 32 0 32 32 SE 12 19 30.06 1018 10 16.0934 0 0
7:55 pm 19:55 Clear 61 16.2 32 0 33 33 SE 10 17 30.06 1018 10 16.0934 0 0
8:15 pm 20:15 Clear 60 15.6 32 0 35 35 SE 10 17 30.06 1018 10 16.0934 0 0
8:35 pm 20:35 Clear 59 15.1 32 0 36 36 SE 9 15 30.06 1018 10 16.0934 0 0
8:55 pm 20:55 Clear 57 14.1 32 0.2 39 39 SE 9 15 30.06 1018 10 16.0934 0 0
9:15 pm 21:15 Clear 56 13.3 32 0.1 41 41 SE 13 20 30.09 1019 10 16.0934 0 0
9:35 pm 21:35 Clear 55 12.5 32 0.1 43 43 SE 10 17 30.09 1019 10 16.0934 0 0
9:55 pm 21:55 Clear 53 11.6 31 -0.5 43 43 SE 12 19 30.09 1019 10 16.0934 0 0
10:15 pm 22:15 Clear 52 11.1 30 -1.2 43 43 SE 10 17 30.06 1018 10 16.0934 0 0
10:35 pm 22:35 Clear 50 10.2 30 -1.3 45 45 SE 10 17 30.09 1019 10 16.0934 0 0
10:55 pm 22:55 Clear 50 9.9 29 -1.5 45 45 SE 9 15 30.09 1019 10 16.0934 0 0
11:15 pm 23:15 Clear 50 10 30 -1.3 46 46 SE 9 15 30.09 1019 10 16.0934 0 0
11:35 pm 23:35 Clear 49 9.6 31 -0.5 50 50 ESE 7 11 30.09 1019 10 16.0934 0 0
11:55 pm 23:55 Clear 50 9.8 32 0.1 51 51 SE 9 15 30.09 1019 10 16.0934 0 0

Powered by AerisWeather